Regional Weather Roundup
Issued by NWS

Home | Current Version | Previous Version | Text Only | Print | Product List | Glossary Off
Versions: 1 2 3 4 5 6 7 8 9 10 11 12 13 14 15 16 17 18 19 20 21 22 23 24 25 26 27 28 29 30 31 32 33 34 35 36 37 38 39 40 41 42 43 44 45 46 47 48 49 50

000
ASUS43 KDMX 190806
RWRIA

WEATHER ROUNDUP FOR IOWA
NATIONAL WEATHER SERVICE DES MOINES IA
200 AM CST SUN NOV 19 2017

NOTE: "FAIR" INDICATES FEW OR NO CLOUDS BELOW 12,000 FEET WITH NO
SIGNIFICANT WEATHER AND/OR OBSTRUCTIONS TO VISIBILITY.

* - THESE STATIONS ARE NOT NWS STATIONS...THUS NOT UNDER NWS
QUALITY CONTROL.  THEY ALSO DO NOT REPORT WEATHER SUCH
AS PRECIPITATION OR FOG.

IAZ001>003-012>014-020>022-031>034-043>046-190900-
   NORTHWEST IOWA

CITY           SKY/WX    TMP DP  RH WIND       PRES   REMARKS
CARROLL *      CLEAR     27  18  69 NW12      30.16R WCI  16
CHEROKEE *     CLEAR     22  17  81 W7        30.17R WCI  14
DENISON *      CLEAR     23  18  80 NW7       30.19R WCI  15
LE MARS *      CLEAR     23  18  80 W6        30.19R WCI  16
ORANGE CITY *  CLEAR     21  19  93 CALM      30.16R
SHELDON *      CLEAR     19  14  79 W7        30.14R WCI  10
SIOUX CITY     CLEAR     24  18  77 NW5       30.20R WCI  18
SPENCER        CLEAR     18  14  84 W9        30.14R WCI   7
STORM LAKE *   CLEAR     19  16  86 W10       30.15R WCI   8
$$

IAZ055>058-069>071-079>083-090>094-190900-
   SOUTHWEST IOWA

CITY           SKY/WX    TMP DP  RH WIND       PRES   REMARKS
ATLANTIC *     CLEAR     27  19  74 NW5       30.18F WCI  21
AUDUBON *      CLEAR     25  18  74 W3        30.17R
CLARINDA *     CLEAR     28  23  80 NW8       30.23R WCI  20
COUNCIL BLFS * CLEAR     28  23  80 NW7       30.20S WCI  21
CRESTON *      CLEAR     27  19  74 NW10G17   30.17S WCI  17
HARLAN  *      PTCLDY    23  19  86 NW8       30.22S WCI  14
LAMONI         CLEAR     29  19  66 NW15G22   30.15R WCI  18
RED OAK *      CLEAR     27  21  80 NW6       30.21S WCI  20
SHENANDOAH *   CLEAR     28  23  80 NW5       30.23S WCI  23
$$

IAZ047>049-059>061-072>074-084-190900-
   CENTRAL IOWA

CITY           SKY/WX    TMP DP  RH WIND       PRES   REMARKS
AMES           CLEAR     25  16  68 NW12      30.13S WCI  14
ANKENY *       CLEAR     27  19  74 NW12      30.15S WCI  16
BOONE *        CLEAR     25  16  68 NW12      30.12S WCI  14
CHARITON *     PTCLDY    28  19  69 NW12      30.14R WCI  18
DES MOINES     PTCLDY    28  19  69 NW10      30.14R WCI  19
GRINNELL*      CLEAR     25  16  70 NW18G25   30.10S WCI  11
KNOXVILLE *    CLEAR     28  16  59 NW20      30.12R WCI  15
MARSHALLTOWN   CLEAR     23  15  71 NW17      30.10R WCI   9
NEWTON *       CLEAR     25  16  68 NW20      30.12R WCI  11
PELLA *        CLEAR     26  18  71 NW14      30.14R WCI  15
PERRY *          N/A     26  19  74 NW9       30.16R WCI  17
$$

IAZ004>006-015-016-023>025-035-036-190900-
   NORTH CENTRAL IOWA

CITY           SKY/WX    TMP DP  RH WIND       PRES   REMARKS
ALGONA *       CLEAR     21  16  79 NW9       30.11S WCI  11
CLARION *      CLEAR     21  18  86 NW12      30.12R WCI   9
ESTHERVILLE    CLEAR     18  13  80 W9        30.12R WCI   7
FORT DODGE *   CLEAR     22  17  81 W7        30.14R WCI  13
MASON CITY     CLEAR     19  11  70 NW15      30.10R WCI   5
FOREST CITY *    N/A     21  14  73 NW12G17   30.09S WCI   9
WEBSTER CITY * CLEAR     23  16  74 NW15      30.11R WCI  10
IOWA FALLS *     N/A     23  17  75 NW13G20   30.10S WCI  12
$$

IAZ007>011-017>019-026>030-037>042-050>054-066-190900-
   NORTHEAST IOWA

CITY           SKY/WX    TMP DP  RH WIND       PRES   REMARKS
CEDAR RAPIDS   CLEAR     24  15  68 NW20      30.05R WCI  10
CHARLES CITY * PTCLDY    21  12  68 NW15G21   30.06R WCI   8
CLINTON *      PTCLDY    25  21  85 NW18      30.00R WCI  11
DECORAH *      PTCLDY    21  14  73 NW12G18   30.00S WCI   9
DUBUQUE        CLOUDY    25  18  74 NW22G29   29.99R WCI  10
MONTICELLO *   CLEAR     25  16  68 NW18G26   30.03R WCI  11
OELWEIN *      CLEAR     21  18  86 NW16      30.03S WCI   7
WATERLOO       CLEAR     21  12  68 NW9       30.06S WCI  11
$$

IAZ064-065-067-068-078-190900-
   EAST CENTRAL IOWA

CITY           SKY/WX    TMP DP  RH WIND       PRES   REMARKS
DAVENPORT      PTCLDY    25  19  78 NW15G23   30.04R WCI  13
IOWA CITY      CLEAR     27  16  63 NW20G28   30.08R WCI  13
MT. PLEASANT * PTCLDY    28  17  63 NW16G24   30.08R WCI  15
MUSCATINE *    PTCLDY    27  18  69 NW18G26   30.07R WCI  13
QUAD CITIES    CLEAR     28  18  66 W12G23    30.03R WCI  18
$$

IAZ062-063-075>077-085>089-095>099-190900-
   SOUTHEAST IOWA

CITY           SKY/WX    TMP DP  RH WIND       PRES   REMARKS
BURLINGTON     PTCLDY    28  19  69 NW15G25   30.07R WCI  16
FAIRFIELD *    CLEAR     27  18  69 NW16G23   30.09R WCI  14
FORT MADISON * PTCLDY    28  19  69 NW16      30.09R WCI  17
KEOKUK *       PTCLDY    30  19  64 NW14G24   30.09R WCI  20
OSKALOOSA *      N/A     26  19  74 NW15      30.12R WCI  14
OTTUMWA        CLEAR     28  17  63 NW22G30   30.11R WCI  14
WASHINGTON *   PTCLDY    27  18  69 NW12G22   30.09R WCI  16
$$

ABBREVIATIONS USED IN REMARKS
   TC - TEMPERATURES IN CELSIUS
  WCI - WIND CHILL INDEX
   HX - HEAT INDEX
  VSB - VISIBILITY
$$




USA.gov is the U.S. government's official web portal to all federal, state and local government web resources and services.